�������l�o���
Date,Time,MP-1(��Sv/h),MP-2(��Sv/h),MP-3(��Sv/h),MP-4(��Sv/h),MP-5(��Sv/h),MP-6(��Sv/h),MP-7(��Sv/h),MP-8(��Sv/h),����,����(m/s),���J
2022/03/21,00:00,0.569,0.841,0.540,1.035,0.726,0.344,0.597,0.567,���k��,0.9,��
2022/03/21,00:10,0.570,0.843,0.541,1.035,0.724,0.343,0.597,0.567,�k��,1.7,��
2022/03/21,00:20,0.570,0.842,0.541,1.034,0.725,0.343,0.598,0.568,���k��,1.9,��
2022/03/21,00:30,0.570,0.843,0.542,1.033,0.727,0.343,0.598,0.566,�k�k��,2.0,��
2022/03/21,00:40,0.569,0.842,0.543,1.034,0.724,0.344,0.599,0.567,�k�k��,2.3,��
2022/03/21,00:50,0.571,0.842,0.543,1.035,0.725,0.343,0.598,0.566,�k,2.0,��
2022/03/21,01:00,0.569,0.843,0.541,1.034,0.723,0.342,0.599,0.566,�k,2.3,��
2022/03/21,01:10,0.570,0.842,0.543,1.034,0.723,0.343,0.597,0.566,�k�k��,2.8,��
2022/03/21,01:20,0.571,0.841,0.542,1.033,0.727,0.343,0.598,0.567,�k�k��,2.9,��
2022/03/21,01:30,0.572,0.843,0.543,1.036,0.725,0.343,0.598,0.567,�k�k��,1.7,��
2022/03/21,01:40,0.569,0.842,0.542,1.033,0.725,0.343,0.598,0.566,�k�k��,2.0,��
2022/03/21,01:50,0.571,0.843,0.542,1.035,0.725,0.343,0.598,0.566,�k�k��,2.0,��
2022/03/21,02:00,0.570,0.843,0.541,1.032,0.724,0.344,0.596,0.567,�k�k��,2.2,��
2022/03/21,02:10,0.571,0.844,0.543,1.032,0.726,0.343,0.596,0.567,�k�k��,1.9,��
2022/03/21,02:20,0.571,0.843,0.543,1.035,0.723,0.343,0.597,0.566,�k�k��,2.0,��
2022/03/21,02:30,0.570,0.843,0.542,1.034,0.726,0.343,0.598,0.566,�k�k��,2.6,��
2022/03/21,02:40,0.572,0.843,0.543,1.034,0.725,0.343,0.599,0.567,�k�k��,2.3,��
2022/03/21,02:50,0.570,0.843,0.542,1.034,0.724,0.343,0.599,0.568,�k�k��,1.9,��
2022/03/21,03:00,0.569,0.842,0.542,1.034,0.725,0.344,0.597,0.567,�k��,2.3,��
2022/03/21,03:10,0.570,0.842,0.543,1.033,0.727,0.345,0.598,0.567,�k��,2.3,��
2022/03/21,03:20,0.569,0.840,0.543,1.036,0.725,0.343,0.598,0.567,�k��,3.4,��
2022/03/21,03:30,0.570,0.842,0.542,1.034,0.724,0.343,0.598,0.566,���k��,4.3,��
2022/03/21,03:40,0.570,0.842,0.543,1.037,0.724,0.344,0.599,0.567,���k��,4.0,��
2022/03/21,03:50,0.569,0.840,0.542,1.032,0.726,0.344,0.599,0.567,���k��,3.6,��
2022/03/21,04:00,0.571,0.841,0.544,1.033,0.723,0.342,0.598,0.566,���k��,4.0,��
2022/03/21,04:10,0.571,0.842,0.543,1.035,0.726,0.344,0.599,0.567,�k��,3.4,��
2022/03/21,04:20,0.570,0.843,0.541,1.036,0.724,0.343,0.599,0.566,�k��,2.3,��
2022/03/21,04:30,0.570,0.841,0.541,1.034,0.725,0.343,0.599,0.569,���k��,2.9,��
2022/03/21,04:40,0.569,0.843,0.543,1.034,0.724,0.343,0.598,0.567,�k��,2.5,��
2022/03/21,04:50,0.569,0.843,0.543,1.033,0.724,0.343,0.597,0.566,�k�k��,3.2,��
2022/03/21,05:00,0.568,0.841,0.541,1.035,0.726,0.342,0.597,0.567,�k�k��,2.5,��
2022/03/21,05:10,0.571,0.842,0.542,1.034,0.724,0.344,0.597,0.567,�k�k��,2.8,��
2022/03/21,05:20,0.570,0.842,0.542,1.035,0.726,0.342,0.597,0.568,�k��,4.4,��
2022/03/21,05:30,0.571,0.844,0.541,1.034,0.725,0.344,0.597,0.567,�k��,5.6,��
2022/03/21,05:40,0.569,0.842,0.542,1.035,0.724,0.343,0.597,0.567,�k��,3.1,��
2022/03/21,05:50,0.570,0.842,0.541,1.034,0.723,0.344,0.599,0.566,�k��,2.2,��
2022/03/21,06:00,0.569,0.844,0.542,1.035,0.725,0.341,0.598,0.565,�k��,5.0,��
2022/03/21,06:10,0.568,0.842,0.541,1.036,0.724,0.342,0.597,0.568,�k�k��,4.7,��
2022/03/21,06:20,0.568,0.843,0.542,1.035,0.725,0.342,0.597,0.567,�k�k��,4.1,��
2022/03/21,06:30,0.569,0.842,0.543,1.036,0.728,0.343,0.598,0.567,�k,2.3,��
2022/03/21,06:40,0.570,0.842,0.540,1.033,0.728,0.342,0.599,0.568,�k�k��,2.3,��
2022/03/21,06:50,0.570,0.842,0.542,1.038,0.724,0.344,0.598,0.566,�k��,1.5,��
2022/03/21,07:00,0.570,0.843,0.543,1.036,0.726,0.343,0.598,0.566,��,2.6,��
2022/03/21,07:10,0.570,0.842,0.542,1.036,0.727,0.343,0.597,0.567,��,2.5,��
2022/03/21,07:20,0.569,0.842,0.543,1.034,0.724,0.343,0.598,0.567,��,1.4,��
2022/03/21,07:30,0.570,0.844,0.542,1.034,0.724,0.344,0.598,0.567,��,1.7,��
2022/03/21,07:40,0.572,0.844,0.543,1.035,0.725,0.344,0.597,0.566,�쓌,2.2,��
2022/03/21,07:50,0.570,0.845,0.543,1.035,0.724,0.345,0.598,0.567,�쓌,3.0,��
2022/03/21,08:00,0.569,0.845,0.543,1.036,0.725,0.343,0.599,0.567,��쓌,2.2,��
2022/03/21,08:10,0.571,0.846,0.543,1.033,0.726,0.343,0.598,0.567,�쓌,2.6,��
2022/03/21,08:20,0.571,0.845,0.541,1.034,0.726,0.343,0.598,0.567,��쓌,3.5,��
2022/03/21,08:30,0.572,0.845,0.543,1.033,0.725,0.344,0.599,0.568,�쓌,3.4,��
2022/03/21,08:40,0.571,0.843,0.542,1.036,0.725,0.344,0.600,0.566,�쓌,4.6,��
2022/03/21,08:50,0.571,0.844,0.542,1.034,0.726,0.344,0.597,0.568,�쓌,5.3,��
2022/03/21,09:00,0.571,0.844,0.542,1.035,0.725,0.342,0.595,0.566,�쓌,5.1,��
2022/03/21,09:10,0.571,0.843,0.543,1.035,0.724,0.342,0.595,0.567,�쓌,4.0,��
2022/03/21,09:20,0.572,0.845,0.542,1.036,0.727,0.343,0.597,0.568,�쓌,3.7,��
2022/03/21,09:30,0.571,0.845,0.542,1.036,0.726,0.344,0.597,0.567,��쓌,3.2,��
2022/03/21,09:40,0.572,0.843,0.543,1.038,0.728,0.344,0.598,0.567,���쓌,4.5,��
2022/03/21,09:50,0.571,0.843,0.543,1.035,0.728,0.343,0.597,0.567,�쓌,3.8,��
2022/03/21,10:00,0.572,0.842,0.544,1.036,0.728,0.344,0.597,0.565,��쓌,3.9,��
2022/03/21,10:10,0.571,0.846,0.542,1.037,0.727,0.344,0.597,0.566,�쓌,4.6,��
2022/03/21,10:20,0.571,0.845,0.543,1.037,0.728,0.344,0.596,0.564,�쓌,4.8,��
2022/03/21,10:30,0.572,0.844,0.545,1.035,0.729,0.342,0.598,0.564,�쓌,3.9,��
2022/03/21,10:40,0.573,0.846,0.543,1.038,0.731,0.343,0.597,0.564,���쓌,3.1,��
2022/03/21,10:50,0.573,0.846,0.544,1.037,0.729,0.344,0.598,0.566,��쓌,4.6,��
2022/03/21,11:00,0.574,0.844,0.544,1.036,0.729,0.344,0.597,0.564,��쓌,4.7,��
2022/03/21,11:10,0.574,0.847,0.543,1.037,0.730,0.343,0.596,0.566,��쓌,3.8,��
2022/03/21,11:20,0.573,0.846,0.546,1.037,0.729,0.342,0.597,0.564,��쓌,5.2,��
2022/03/21,11:30,0.572,0.847,0.544,1.037,0.731,0.344,0.597,0.566,��쓌,5.0,��
2022/03/21,11:40,0.576,0.847,0.546,1.037,0.730,0.343,0.599,0.566,�쓌,5.2,��
2022/03/21,11:50,0.573,0.848,0.546,1.038,0.729,0.342,0.598,0.567,�쓌,5.7,��
2022/03/21,12:00,0.571,0.847,0.544,1.040,0.729,0.344,0.598,0.565,�쓌,4.9,��
2022/03/21,12:10,0.573,0.847,0.545,1.037,0.730,0.344,0.597,0.566,��쓌,4.8,��
2022/03/21,12:20,0.573,0.849,0.542,1.037,0.730,0.344,0.598,0.566,��쓌,6.7,��
2022/03/21,12:30,0.572,0.847,0.545,1.038,0.730,0.343,0.597,0.565,��쓌,8.4,��
2022/03/21,12:40,0.574,0.849,0.545,1.039,0.729,0.345,0.598,0.566,��쓌,7.6,��
2022/03/21,12:50,0.574,0.850,0.545,1.039,0.731,0.344,0.599,0.565,��쓌,7.3,��
2022/03/21,13:00,0.574,0.849,0.546,1.039,0.729,0.345,0.599,0.566,��쐼,5.7,��
2022/03/21,13:10,0.574,0.850,0.546,1.038,0.730,0.346,0.600,0.567,���쐼,7.3,��
2022/03/21,13:20,0.575,0.851,0.547,1.038,0.733,0.346,0.599,0.565,��,8.8,��
2022/03/21,13:30,0.573,0.848,0.546,1.039,0.733,0.347,0.601,0.566,��,10.5,��
2022/03/21,13:40,0.573,0.849,0.546,1.040,0.732,0.345,0.600,0.568,��,8.1,��
2022/03/21,13:50,0.573,0.848,0.546,1.040,0.731,0.344,0.599,0.566,��,5.8,��
2022/03/21,14:00,0.573,0.850,0.546,1.040,0.730,0.345,0.601,0.566,��,4.6,��
2022/03/21,14:10,0.573,0.848,0.544,1.040,0.732,0.346,0.600,0.567,�k�k��,2.6,��
2022/03/21,14:20,0.572,0.849,0.545,1.038,0.731,0.344,0.599,0.566,�쓌,6.5,��
2022/03/21,14:30,0.573,0.849,0.543,1.041,0.734,0.345,0.600,0.566,�쓌,7.4,��
2022/03/21,14:40,0.572,0.850,0.545,1.041,0.731,0.345,0.600,0.565,�쓌,7.3,��
2022/03/21,14:50,0.573,0.849,0.545,1.040,0.731,0.344,0.599,0.566,�쓌,4.1,��
2022/03/21,15:00,0.573,0.848,0.547,1.041,0.732,0.344,0.599,0.567,�쓌,5.7,��
2022/03/21,15:10,0.572,0.851,0.546,1.041,0.731,0.344,0.599,0.567,�쓌,6.8,��
2022/03/21,15:20,0.573,0.850,0.548,1.041,0.734,0.348,0.599,0.566,���쓌,4.3,��
2022/03/21,15:30,0.573,0.850,0.546,1.041,0.731,0.343,0.597,0.566,���쓌,4.7,��
2022/03/21,15:40,0.574,0.853,0.547,1.041,0.731,0.345,0.597,0.566,���쓌,5.0,��
2022/03/21,15:50,0.575,0.851,0.548,1.041,0.732,0.345,0.597,0.567,�쓌,4.7,��
2022/03/21,16:00,0.576,0.854,0.548,1.040,0.732,0.344,0.599,0.569,�쓌,4.3,��
2022/03/21,16:10,0.576,0.852,0.549,1.039,0.733,0.344,0.600,0.569,��쓌,4.3,��
2022/03/21,16:20,0.575,0.853,0.547,1.039,0.732,0.345,0.598,0.570,�쓌,3.4,��
2022/03/21,16:30,0.576,0.853,0.547,1.041,0.735,0.343,0.599,0.570,���쓌,2.8,��
2022/03/21,16:40,0.574,0.852,0.547,1.040,0.735,0.346,0.600,0.570,�쓌,2.8,��
2022/03/21,16:50,0.575,0.853,0.547,1.041,0.735,0.345,0.600,0.570,�쓌,3.3,��
2022/03/21,17:00,0.574,0.853,0.547,1.041,0.736,0.345,0.600,0.568,���쓌,2.3,��
2022/03/21,17:10,0.575,0.853,0.546,1.039,0.735,0.346,0.601,0.569,��쓌,2.3,��
2022/03/21,17:20,0.575,0.852,0.546,1.042,0.735,0.344,0.599,0.570,�쓌,2.8,��
2022/03/21,17:30,0.574,0.854,0.547,1.041,0.735,0.344,0.600,0.569,�쓌,3.0,��
2022/03/21,17:40,0.574,0.854,0.547,1.039,0.736,0.345,0.601,0.568,���쓌,2.5,��
2022/03/21,17:50,0.574,0.853,0.546,1.040,0.734,0.345,0.601,0.569,�쓌,2.3,��
2022/03/21,18:00,0.574,0.852,0.548,1.040,0.734,0.343,0.601,0.569,��쓌,1.7,��
2022/03/21,18:10,0.575,0.852,0.547,1.041,0.734,0.345,0.600,0.568,�쓌,1.2,��
2022/03/21,18:20,0.574,0.853,0.547,1.040,0.735,0.344,0.601,0.570,���쓌,1.2,��
2022/03/21,18:30,0.574,0.852,0.547,1.041,0.735,0.345,0.600,0.568,���쓌,2.0,��
2022/03/21,18:40,0.575,0.854,0.546,1.041,0.736,0.345,0.602,0.568,���쓌,1.4,��
2022/03/21,18:50,0.574,0.852,0.546,1.038,0.735,0.345,0.599,0.568,�쓌,1.2,��
2022/03/21,19:00,0.574,0.853,0.545,1.040,0.734,0.345,0.599,0.570,���쓌,0.9,��
2022/03/21,19:10,0.573,0.851,0.546,1.039,0.734,0.344,0.601,0.567,��,0.8,��
2022/03/21,19:20,0.575,0.852,0.546,1.040,0.735,0.345,0.599,0.568,��쓌,1.2,��
2022/03/21,19:30,0.576,0.851,0.547,1.041,0.733,0.342,0.600,0.569,���쓌,0.6,��
2022/03/21,19:40,0.574,0.852,0.546,1.040,0.734,0.343,0.599,0.568,��쓌,0.9,��
2022/03/21,19:50,0.574,0.853,0.545,1.041,0.734,0.344,0.599,0.567,��쓌,1.2,��
2022/03/21,20:00,0.574,0.852,0.545,1.040,0.734,0.343,0.600,0.568,��,1.2,��
2022/03/21,20:10,0.573,0.849,0.545,1.040,0.734,0.344,0.600,0.567,��쐼,0.9,��
2022/03/21,20:20,0.573,0.852,0.548,1.040,0.733,0.343,0.600,0.568,��,1.2,��
2022/03/21,20:30,0.573,0.851,0.545,1.039,0.735,0.344,0.599,0.568,��,0.6,��
2022/03/21,20:40,0.573,0.852,0.546,1.041,0.734,0.344,0.601,0.570,��쐼,0.9,��
2022/03/21,20:50,0.574,0.852,0.546,1.042,0.736,0.345,0.599,0.569,�쐼,0.9,��
2022/03/21,21:00,0.573,0.852,0.545,1.041,0.734,0.344,0.599,0.567,�쐼,0.8,��
2022/03/21,21:10,0.574,0.852,0.544,1.042,0.735,0.344,0.599,0.568,���쐼,0.6,��
2022/03/21,21:20,0.574,0.852,0.547,1.041,0.736,0.344,0.600,0.570,�쓌,0.9,��
2022/03/21,21:30,0.573,0.851,0.546,1.040,0.734,0.344,0.600,0.570,�쓌,0.6,��
2022/03/21,21:40,0.574,0.852,0.545,1.041,0.733,0.343,0.599,0.568,-,CALM,��
2022/03/21,21:50,0.573,0.851,0.547,1.041,0.733,0.345,0.599,0.569,��쓌,1.2,��
2022/03/21,22:00,0.575,0.849,0.547,1.041,0.735,0.344,0.599,0.567,��쓌,0.9,�L
2022/03/21,22:10,0.575,0.853,0.545,1.042,0.735,0.346,0.599,0.567,���쓌,0.8,�L
2022/03/21,22:20,0.575,0.852,0.547,1.041,0.736,0.344,0.600,0.570,��쓌,0.6,�L
2022/03/21,22:30,0.574,0.850,0.546,1.039,0.736,0.346,0.599,0.569,��쓌,0.9,�L
2022/03/21,22:40,0.574,0.849,0.546,1.040,0.735,0.345,0.599,0.568,��쓌,1.4,�L
2022/03/21,22:50,0.576,0.853,0.547,1.043,0.734,0.346,0.600,0.568,��쓌,0.6,�L
2022/03/21,23:00,0.574,0.852,0.548,1.042,0.735,0.344,0.601,0.569,��쓌,0.9,�L
2022/03/21,23:10,0.574,0.852,0.547,1.043,0.734,0.346,0.600,0.568,��쓌,0.9,�L
2022/03/21,23:20,0.575,0.853,0.546,1.041,0.734,0.344,0.599,0.568,��쓌,0.6,�L
2022/03/21,23:30,0.574,0.850,0.544,1.039,0.735,0.345,0.600,0.568,�쐼,0.6,�L
2022/03/21,23:40,0.575,0.853,0.547,1.042,0.735,0.344,0.599,0.569,�쐼,0.6,�L
2022/03/21,23:50,0.574,0.852,0.546,1.041,0.732,0.344,0.600,0.569,��,1.2,�L
